Вернуться в каталог

DELTA 1 DEB

АктивенSSO
NORAD 37663·DEBRIS·🇺🇸 United States

Запущен Mar 5, 1978 с Vandenberg Space Force Base

Loading…

Ближайшие Пролёты (ближайшие 24 часа)

TLE

СвежийSource: Space-Track

Эпоха: Sep 12, 2026, 19:43 UTC

1 37663U 78026KA  26255.82157762  .00000245  00000-0  13307-3 0  9994
2 37663  98.8640 291.7023 0037088 215.1334 144.7396 14.20931171216205

Отслеживайте DELTA 1 DEB в реальном времени с AllMySat

Download on the App Store